星链-1641 (STARLINK-1641 )

导读 | 星芒AI

STARLINK-1641 是 SpaceX Starlink 项目中的一颗低轨通信卫星,属于第 16 批发射的星链卫星群。该卫星于 2022 年 11 月 18 日由猎鹰 9 号火箭送入近地轨道,旨在为全球用户提供高速互联网服务。它运行在约 550 公里的高度,采用先进通信技术,支持宽带数据传输。作为星链星座的一部分,STARLINK-1641 有助于扩大覆盖范围,提升网络连接质量,特别是在偏远和网络基础设施薄弱的地区。

基本信息
目录编号:
46174
目录名称:
STARLINK-1641
国际标识:
2020-057BK
轨道中心:
EARTH
卫星名称:
星链-1641
卫星全名:
星链-1641 (STARLINK-1641 )
卫星状态:
在轨 (已飞行1898 天)
发射日期:
2020-08-18 UTC
国别 :
美国 (US)
星等 :
--
轨道信息
数据来源 国际轨道数据
星历时间: 2025-10-28T17:47:18+0800
1天前
查看轨道信息
半长轴: 6865.243km
偏心率: 0.0001016
轨道倾角: 53.054°
近地点辐角 66.477°
升交点赤经 189.012°
平近点角 293.634°
近地点: 486.41km
远地点: 487.806km
周期: 94.350分钟
每日圈数: 15.262264
详细信息
固有亮度:
5
最大亮度:
2.5
卫星平台:
Starlink V1.0
覆盖范围:
全球
运营商:
太空探索技术公司
运营商所在国:
美国
制造商(研发单位):
太空探索技术公司
制造商所在国:
美国
使用方式:
暂无
卫星简介
星链(Starlink)计划是由太空探索技术公司(SpaceX)提出的一个巨型低轨卫星互联网星座项目,计划在2019年至2024年间在太空搭建由约1.2万颗卫星组成的“星链”网络,其中1584颗将部署在地球上空550千米处的近地轨道,并从2020年开始工作。该卫星仍在工作。
2D轨道图
3D轨道图
轨道高度分析图
轨道倾角分析图
轨道综合分析图
查看轨道综合分析图